Home > Weather > Lawrence > Past weeks

Flag for USA Past Weather in Lawrence, Kansas, USA — Yesterday and Last 2 Weeks

Now
66 °F

Clear.


Feels Like: 66 °F
Forecast: 62 / 82 °F
Wind: 3 mph from Southeast

Location: Lawrence Municipal Airport

Current Time: May 30, 2016 at 12:02:10 AM

Latest Report: May 29, 2016 at 10:52 PM


Visibility: 10 mi

Pressure: 30.03 "Hg

Humidity: 93%

Dew Point: 64 °F

Location of LawrenceLocation

Past Weather in Lawrence — Graph

°F

Lawrence Temperature Yesterday

Maximum temperature yesterday: 85 °F (at 1:52 PM)
Minimum temperature yesterday: 56 °F (at 3:52 AM)
Average temperature yesterday: 72 °F

High & Low Weather Summary for the Past Weeks

 TemperatureHumidityPressure
High85 °F (May 29, 1:52 PM)100% (May 19, 3:52 AM)30.29 "Hg (May 19, 3:52 AM)
Low38 °F (May 15, 2:52 AM)30% (May 15, 2:52 PM)29.67 "Hg (May 27, 5:52 PM)
Average63 °F78%30.00 "Hg
* Reported May 14 9:52 PM — May 29 9:52 PM, Lawrence, Weather by CustomWeather, © 2016

Note: Actual official high and low records may vary slightly from our data, if they occured in-between our weather recording intervals... More about our weather records

Advertising

Lawrence Weather History for the Previous 24 Hours

Scroll right to see more
 ConditionsComfort  
Time TempWeatherWind HumidityBarometerVisibility
9:52 PM
Sun, May 29
68 °FClear.No wind87%30.03 "Hg10 mi
8:52 PM72 °FSunny.3 mph76%30.01 "Hg10 mi
7:52 PM76 °FSunny.6 mph74%30.00 "Hg10 mi
6:52 PM79 °FSunny.7 mph56%30.01 "Hg10 mi
5:52 PM81 °FSunny.8 mph49%30.01 "Hg10 mi
4:52 PM83 °FSunny.6 mph44%30.03 "Hg10 mi
3:52 PM85 °FSunny.7 mph37%30.04 "Hg10 mi
2:52 PM85 °FSunny.N/A35%30.07 "Hg10 mi
1:52 PM85 °FSunny.7 mph37%30.08 "Hg10 mi
12:52 PM84 °FSunny.3 mph43%30.08 "Hg10 mi
11:52 AM82 °FSunny.5 mph51%30.09 "Hg10 mi
10:52 AM80 °FSunny.6 mph58%30.10 "Hg10 mi
9:52 AM77 °FSunny.5 mph66%30.09 "Hg10 mi
8:52 AM71 °FSunny.3 mph78%30.08 "Hg10 mi
7:52 AM66 °FSunny.No wind87%30.07 "Hg10 mi
6:52 AM60 °FPassing clouds.No wind96%30.06 "Hg9 mi
5:52 AM56 °FFog.No wind100%30.05 "Hg4 mi
4:52 AM57 °FClear.3 mph96%30.03 "Hg10 mi
3:52 AM56 °FClear.3 mph97%30.02 "Hg9 mi
2:52 AM57 °FClear.No wind96%30.01 "Hg10 mi
1:52 AM58 °FClear.No wind97%30.01 "Hg10 mi
12:52 AM58 °FClear.3 mph97%30.01 "Hg10 mi
Weather by CustomWeather, © 2016

See weather overviewHow to use our weather pages